When you browse on this site, cookies collect data to enhance your experience and personalize the content and advertising you see.
Visit our Privacy Policy to learn more. By continuing to use the site, you agree to this use of cookies and data.
  • In Deutschland
  • Länderverzeichnis
  • Für 7 Tage
  • Wassertemperatur
  • Satellitenkarten
  • Wetterkarte
  • Widgets
  • user-avatar
    Anmelden

    Stündliche Wetter Kuligow

    Heute, 20 Juli, Samstag

    Zeit Temperatur Niederschläge Wind Luftdruck Luftfeuchtigkeit
    00:00 +19°C° 0.3 mm 2 m/S 753 mmHg 78%
    01:00 +18°C° 0 mm 3 m/S 753 mmHg 85%
    02:00 +18°C° 0.4 mm 2 m/S 753 mmHg 87%
    03:00 +18°C° 0.4 mm 2 m/S 754 mmHg 88%
    04:00 +18°C° 0.4 mm 2 m/S 754 mmHg 90%
    05:00 +19°C° 0.1 mm 2 m/S 754 mmHg 86%
    06:00 +20°C° 0.1 mm 2 m/S 754 mmHg 83%
    07:00 +21°C° 0.1 mm 2 m/S 754 mmHg 80%
    08:00 +23°C° 0 mm 2 m/S 754 mmHg 73%
    09:00 +25°C° 0 mm 2 m/S 754 mmHg 66%
    10:00 +26°C° 0 mm 2 m/S 754 mmHg 59%
    11:00 +27°C° 0.1 mm 2 m/S 754 mmHg 56%
    12:00 +28°C° 0.1 mm 3 m/S 754 mmHg 52%
    13:00 +29°C° 0.1 mm 3 m/S 754 mmHg 48%
    14:00 +28°C° 0.4 mm 2 m/S 754 mmHg 50%
    15:00 +28°C° 0.4 mm 2 m/S 754 mmHg 52%
    16:00 +28°C° 0.4 mm 2 m/S 754 mmHg 54%
    17:00 +27°C° 0.1 mm 1 m/S 754 mmHg 59%
    18:00 +26°C° 0.1 mm 1 m/S 754 mmHg 64%
    19:00 +24°C° 0.1 mm 1 m/S 754 mmHg 69%
    20:00 +23°C° 0 mm 1 m/S 754 mmHg 71%
    21:00 +23°C° 0 mm 1 m/S 754 mmHg 73%
    22:00 +22°C° 0 mm 1 m/S 754 mmHg 74%
    23:00 +21°C° 0 mm 1 m/S 754 mmHg 75%

    Morgen, 21 Juli, Sonntag

    Zeit Temperatur Niederschläge Wind Luftdruck Luftfeuchtigkeit
    00:00 +21°C° 0 mm 1 m/S 754 mmHg 76%
    01:00 +21°C° 0 mm 1 m/S 754 mmHg 77%
    02:00 +20°C° 0 mm 1 m/S 754 mmHg 78%
    03:00 +20°C° 0 mm 1 m/S 754 mmHg 79%
    04:00 +20°C° 0 mm 1 m/S 754 mmHg 80%
    05:00 +20°C° 0 mm 2 m/S 754 mmHg 75%
    06:00 +23°C° 0 mm 2 m/S 754 mmHg 70%
    07:00 +24°C° 0 mm 2 m/S 753 mmHg 65%
    08:00 +26°C° 0 mm 3 m/S 754 mmHg 61%
    09:00 +27°C° 0 mm 3 m/S 754 mmHg 56%
    10:00 +29°C° 0 mm 4 m/S 754 mmHg 52%
    11:00 +29°C° 0.1 mm 4 m/S 754 mmHg 52%
    12:00 +30°C° 0.1 mm 4 m/S 753 mmHg 53%
    13:00 +30°C° 0.1 mm 4 m/S 753 mmHg 53%
    14:00 +30°C° 1.9 mm 3 m/S 753 mmHg 56%
    15:00 +29°C° 1.9 mm 3 m/S 753 mmHg 60%
    16:00 +28°C° 1.9 mm 3 m/S 753 mmHg 63%
    17:00 +27°C° 1.5 mm 3 m/S 753 mmHg 69%
    18:00 +25°C° 1.5 mm 3 m/S 753 mmHg 75%
    19:00 +23°C° 1.5 mm 4 m/S 754 mmHg 80%
    20:00 +22°C° 0.2 mm 4 m/S 754 mmHg 83%
    21:00 +21°C° 0.2 mm 4 m/S 754 mmHg 86%
    22:00 +20°C° 0.2 mm 3 m/S 755 mmHg 89%
    23:00 +19°C° 0 mm 3 m/S 755 mmHg 90%

    übermorgen, 22 Juli, Montag

    Zeit Temperatur Niederschläge Wind Luftdruck Luftfeuchtigkeit
    00:00 +19°C° 0 mm 3 m/S 755 mmHg 91%
    01:00 +18°C° 0 mm 3 m/S 755 mmHg 93%
    02:00 +17°C° 0 mm 3 m/S 756 mmHg 92%
    03:00 +17°C° 0 mm 3 m/S 756 mmHg 91%
    04:00 +17°C° 0 mm 3 m/S 756 mmHg 90%
    05:00 +17°C° 0 mm 4 m/S 756 mmHg 88%
    06:00 +17°C° 0 mm 5 m/S 757 mmHg 85%
    07:00 +19°C° 0 mm 5 m/S 757 mmHg 82%
    08:00 +19°C° 0.1 mm 5 m/S 757 mmHg 81%
    09:00 +19°C° 0.1 mm 5 m/S 757 mmHg 80%
    10:00 +20°C° 0.1 mm 5 m/S 757 mmHg 78%
    11:00 +21°C° 0.1 mm 5 m/S 757 mmHg 71%
    12:00 +22°C° 0.1 mm 6 m/S 758 mmHg 65%
    13:00 +24°C° 0.1 mm 6 m/S 758 mmHg 58%
    14:00 +24°C° 0 mm 6 m/S 758 mmHg 57%
    15:00 +24°C° 0 mm 6 m/S 758 mmHg 56%
    16:00 +24°C° 0 mm 6 m/S 758 mmHg 55%
    17:00 +23°C° 0 mm 5 m/S 757 mmHg 60%
    18:00 +21°C° 0 mm 4 m/S 757 mmHg 66%
    19:00 +20°C° 0 mm 3 m/S 757 mmHg 71%
    20:00 +19°C° 0 mm 3 m/S 758 mmHg 74%
    21:00 +18°C° 0 mm 3 m/S 758 mmHg 77%
    22:00 +17°C° 0 mm 2 m/S 758 mmHg 79%
    23:00 +16°C° 0 mm 3 m/S 758 mmHg 81%

    23 Juli, Dienstag

    Zeit Temperatur Niederschläge Wind Luftdruck Luftfeuchtigkeit
    00:00 +16°C° 0 mm 3 m/S 758 mmHg 83%
    01:00 +14°C° 0 mm 3 m/S 758 mmHg 85%
    02:00 +14°C° 0 mm 3 m/S 758 mmHg 87%
    03:00 +13°C° 0 mm 3 m/S 758 mmHg 88%
    04:00 +13°C° 0 mm 3 m/S 758 mmHg 90%
    05:00 +16°C° 0 mm 3 m/S 758 mmHg 85%
    06:00 +17°C° 0 mm 4 m/S 757 mmHg 81%
    07:00 +18°C° 0 mm 4 m/S 757 mmHg 77%
    08:00 +20°C° 0 mm 4 m/S 757 mmHg 73%
    09:00 +21°C° 0 mm 5 m/S 757 mmHg 69%
    10:00 +23°C° 0 mm 5 m/S 757 mmHg 64%
    11:00 +23°C° 0.1 mm 5 m/S 757 mmHg 62%
    12:00 +25°C° 0.1 mm 5 m/S 757 mmHg 60%
    13:00 +26°C° 0.1 mm 5 m/S 757 mmHg 57%
    14:00 +26°C° 0 mm 5 m/S 757 mmHg 58%
    15:00 +26°C° 0 mm 5 m/S 756 mmHg 58%
    16:00 +26°C° 0 mm 5 m/S 756 mmHg 58%
    17:00 +25°C° 0 mm 4 m/S 756 mmHg 64%
    18:00 +23°C° 0 mm 4 m/S 756 mmHg 70%
    19:00 +22°C° 0 mm 3 m/S 756 mmHg 76%
    20:00 +21°C° 0 mm 3 m/S 756 mmHg 80%
    21:00 +19°C° 0 mm 2 m/S 757 mmHg 85%
    22:00 +18°C° 0 mm 2 m/S 757 mmHg 89%
    23:00 +18°C° 0 mm 2 m/S 757 mmHg 90%

    24 Juli, Mittwoch

    Zeit Temperatur Niederschläge Wind Luftdruck Luftfeuchtigkeit
    00:00 +17°C° 0 mm 2 m/S 757 mmHg 91%
    01:00 +17°C° 0 mm 2 m/S 757 mmHg 92%
    02:00 +16°C° 0 mm 2 m/S 757 mmHg 93%
    03:00 +16°C° 0 mm 2 m/S 757 mmHg 93%
    04:00 +16°C° 0 mm 2 m/S 757 mmHg 94%
    05:00 +18°C° 0 mm 1 m/S 757 mmHg 88%
    06:00 +20°C° 0 mm 1 m/S 757 mmHg 82%
    07:00 +21°C° 0 mm 1 m/S 757 mmHg 77%
    08:00 +21°C° 0 mm 2 m/S 757 mmHg 72%
    09:00 +24°C° 0 mm 2 m/S 757 mmHg 66%
    10:00 +25°C° 0 mm 2 m/S 757 mmHg 61%
    11:00 +26°C° 0 mm 2 m/S 757 mmHg 60%
    12:00 +26°C° 0 mm 3 m/S 757 mmHg 60%
    13:00 +27°C° 0 mm 3 m/S 757 mmHg 59%
    14:00 +27°C° 0 mm 3 m/S 757 mmHg 59%
    15:00 +27°C° 0 mm 2 m/S 757 mmHg 58%
    16:00 +27°C° 0 mm 2 m/S 757 mmHg 58%
    17:00 +26°C° 0 mm 2 m/S 757 mmHg 63%
    18:00 +25°C° 0 mm 1 m/S 757 mmHg 68%
    19:00 +24°C° 0 mm 1 m/S 757 mmHg 72%
    20:00 +24°C° 0 mm 1 m/S 757 mmHg 76%
    21:00 +23°C° 0 mm 1 m/S 757 mmHg 79%
    22:00 +22°C° 0 mm 1 m/S 758 mmHg 82%
    23:00 +21°C° 0 mm 1 m/S 758 mmHg 84%

    25 Juli, Donnerstag

    Zeit Temperatur Niederschläge Wind Luftdruck Luftfeuchtigkeit
    00:00 +21°C° 0 mm 1 m/S 758 mmHg 87%
    01:00 +20°C° 0 mm 1 m/S 758 mmHg 89%
    02:00 +20°C° 0 mm 1 m/S 758 mmHg 89%
    03:00 +20°C° 0 mm 1 m/S 758 mmHg 90%
    04:00 +19°C° 0 mm 1 m/S 758 mmHg 90%
    05:00 +21°C° 0 mm 1 m/S 758 mmHg 84%
    06:00 +22°C° 0 mm 1 m/S 758 mmHg 79%
    07:00 +24°C° 0 mm 1 m/S 759 mmHg 73%
    08:00 +25°C° 0 mm 1 m/S 759 mmHg 68%
    09:00 +27°C° 0 mm 1 m/S 759 mmHg 63%
    10:00 +28°C° 0 mm 1 m/S 759 mmHg 58%
    11:00 +29°C° 0 mm 1 m/S 759 mmHg 54%
    12:00 +30°C° 0 mm 1 m/S 759 mmHg 50%
    13:00 +30°C° 0 mm 2 m/S 759 mmHg 47%
    14:00 +30°C° 0 mm 2 m/S 758 mmHg 47%
    15:00 +30°C° 0 mm 2 m/S 758 mmHg 47%
    16:00 +30°C° 0 mm 2 m/S 758 mmHg 47%
    17:00 +29°C° 0 mm 2 m/S 758 mmHg 53%
    18:00 +28°C° 0 mm 2 m/S 758 mmHg 58%
    19:00 +26°C° 0 mm 2 m/S 758 mmHg 64%
    20:00 +25°C° 0 mm 1 m/S 758 mmHg 67%
    21:00 +24°C° 0 mm 1 m/S 758 mmHg 70%
    22:00 +23°C° 0 mm 1 m/S 758 mmHg 73%
    23:00 +23°C° 0 mm 1 m/S 758 mmHg 75%
    Mehr zeigen